Voltar ao catálogo

STARLINK-5541

AtivoComunicaçõesVLEO
NORAD 56475·PAYLOAD·🇺🇸 United States

Lançado May 10, 2023 de Vandenberg Space Force Base

Loading…

Próximas Passagens (próximas 24 horas)

TLE

AtualizadoSource: CelesTrak SupGP

Época: Sep 14, 2026, 21:42 UTC

1 56475C 23064AD  26257.90465278  .00398200  00000+0  31307-1 0  2578
2 56475  70.0004   7.3905 0003069 275.0896  10.5603 15.00583809    14

Acompanhe STARLINK-5541 em tempo real com AllMySat

Download on the App Store